Date_Time,Julian_Date,Latitude,Longitude,Instrument_Depth,U,V,Speed,Direction
(yyyy-mm-dd hh:mn:ss UTC),(JD),(+ deg. North),(+ deg. East),(m),(cm/s),(cm/s),(cm/s),(deg True)
1982-01-24 21:30:00 UTC,2444994.395833,29.7139,-93.4733,0049,-26.96,1.41,27.0000,273.0000
1982-01-24 22:00:00 UTC,2444994.416667,29.7139,-93.4733,0049,-26.20,6.53,27.0000,284.0000
1982-01-24 22:30:00 UTC,2444994.437500,29.7139,-93.4733,0049,-24.86,7.60,26.0000,287.0000
1982-01-24 23:00:00 UTC,2444994.458333,29.7139,-93.4733,0049,-22.83,7.42,24.0000,288.0000
1982-01-24 23:30:00 UTC,2444994.479167,29.7139,-93.4733,0049,-19.77,9.64,22.0000,296.0000
1982-01-25 00:00:00 UTC,2444994.500000,29.7139,-93.4733,0049,-15.32,12.86,20.0000,310.0000
1982-01-25 00:30:00 UTC,2444994.520833,29.7139,-93.4733,0049,-13.38,14.86,20.0000,318.0000
1982-01-25 01:00:00 UTC,2444994.541667,29.7139,-93.4733,0049,-10.70,13.21,17.0000,321.0000
1982-01-25 01:30:00 UTC,2444994.562500,29.7139,-93.4733,0049,-7.42,11.87,14.0000,328.0000
1982-01-25 02:00:00 UTC,2444994.583333,29.7139,-93.4733,0049,-3.15,12.61,13.0000,346.0000
1982-01-25 02:30:00 UTC,2444994.604167,29.7139,-93.4733,0049,1.13,12.95,13.0000,5.0000
1982-01-25 03:00:00 UTC,2444994.625000,29.7139,-93.4733,0049,3.11,11.59,12.0000,15.0000
1982-01-25 03:30:00 UTC,2444994.645833,29.7139,-93.4733,0049,3.09,9.51,10.0000,18.0000
1982-01-25 04:00:00 UTC,2444994.666667,29.7139,-93.4733,0049,1.81,6.76,7.0000,15.0000
1982-01-25 04:30:00 UTC,2444994.687500,29.7139,-93.4733,0049,1.45,5.82,6.0000,14.0000
1982-01-25 05:00:00 UTC,2444994.708333,29.7139,-93.4733,0049,1.24,3.80,4.0000,18.0000
1982-01-25 05:30:00 UTC,2444994.729167,29.7139,-93.4733,0049,1.63,3.65,4.0000,24.0000
1982-01-25 06:00:00 UTC,2444994.750000,29.7139,-93.4733,0049,2.19,4.49,5.0000,26.0000
1982-01-25 06:30:00 UTC,2444994.770833,29.7139,-93.4733,0049,2.06,3.43,4.0000,31.0000
1982-01-25 07:00:00 UTC,2444994.791667,29.7139,-93.4733,0049,1.29,1.53,2.0000,40.0000
1982-01-25 07:30:00 UTC,2444994.812500,29.7139,-93.4733,0049,0.83,0.56,1.0000,56.0000
1982-01-25 08:00:00 UTC,2444994.833333,29.7139,-93.4733,0049,1.00,0.00,1.0000,90.0000
1982-01-25 08:30:00 UTC,2444994.854167,29.7139,-93.4733,0049,0.67,-0.74,1.0000,138.0000
1982-01-25 09:00:00 UTC,2444994.875000,29.7139,-93.4733,0049,0.65,-1.89,2.0000,161.0000
1982-01-25 09:30:00 UTC,2444994.895833,29.7139,-93.4733,0049,1.04,-3.86,4.0000,165.0000
1982-01-25 10:00:00 UTC,2444994.916667,29.7139,-93.4733,0049,1.55,-5.80,6.0000,165.0000
1982-01-25 10:30:00 UTC,2444994.937500,29.7139,-93.4733,0049,1.34,-6.87,7.0000,169.0000
1982-01-25 11:00:00 UTC,2444994.958333,29.7139,-93.4733,0049,1.10,-8.93,9.0000,173.0000
1982-01-25 11:30:00 UTC,2444994.979167,29.7139,-93.4733,0049,1.22,-9.93,10.0000,173.0000
1982-01-25 12:00:00 UTC,2444995.000000,29.7139,-93.4733,0049,1.91,-9.82,10.0000,169.0000
1982-01-25 12:30:00 UTC,2444995.020833,29.7139,-93.4733,0049,2.42,-9.70,10.0000,166.0000
1982-01-25 13:00:00 UTC,2444995.041667,29.7139,-93.4733,0049,2.33,-8.69,9.0000,165.0000
1982-01-25 13:30:00 UTC,2444995.062500,29.7139,-93.4733,0049,2.33,-8.69,9.0000,165.0000
1982-01-25 14:00:00 UTC,2444995.083333,29.7139,-93.4733,0049,1.66,-7.83,8.0000,168.0000
1982-01-25 14:30:00 UTC,2444995.104167,29.7139,-93.4733,0049,0.85,-6.95,7.0000,173.0000
1982-01-25 15:00:00 UTC,2444995.125000,29.7139,-93.4733,0049,0.73,-6.96,7.0000,174.0000
1982-01-25 15:30:00 UTC,2444995.145833,29.7139,-93.4733,0049,0.37,-6.99,7.0000,177.0000
1982-01-25 16:00:00 UTC,2444995.166667,29.7139,-93.4733,0049,0.10,-6.00,6.0000,179.0000
1982-01-25 16:30:00 UTC,2444995.187500,29.7139,-93.4733,0049,-0.17,-5.00,5.0000,182.0000
1982-01-25 17:00:00 UTC,2444995.208333,29.7139,-93.4733,0049,-0.95,-4.91,5.0000,191.0000
1982-01-25 17:30:00 UTC,2444995.229167,29.7139,-93.4733,0049,-2.54,-5.44,6.0000,205.0000
1982-01-25 18:00:00 UTC,2444995.250000,29.7139,-93.4733,0049,-4.02,-5.73,7.0000,215.0000
1982-01-25 18:30:00 UTC,2444995.270833,29.7139,-93.4733,0049,-5.90,-6.79,9.0000,221.0000
1982-01-25 19:00:00 UTC,2444995.291667,29.7139,-93.4733,0049,-7.36,-8.17,11.0000,222.0000
1982-01-25 19:30:00 UTC,2444995.312500,29.7139,-93.4733,0049,-8.36,-9.96,13.0000,220.0000
1982-01-25 20:00:00 UTC,2444995.333333,29.7139,-93.4733,0049,-10.79,-10.42,15.0000,226.0000
1982-01-25 20:30:00 UTC,2444995.354167,29.7139,-93.4733,0049,-14.57,-8.76,17.0000,239.0000
1982-01-25 21:00:00 UTC,2444995.375000,29.7139,-93.4733,0049,-16.18,-7.89,18.0000,244.0000
1982-01-25 21:30:00 UTC,2444995.395833,29.7139,-93.4733,0049,-15.10,-9.80,18.0000,237.0000
1982-01-25 22:00:00 UTC,2444995.416667,29.7139,-93.4733,0049,-13.79,-11.57,18.0000,230.0000
1982-01-25 22:30:00 UTC,2444995.437500,29.7139,-93.4733,0049,-13.67,-13.20,19.0000,226.0000
1982-01-25 23:00:00 UTC,2444995.458333,29.7139,-93.4733,0049,-12.50,-12.95,18.0000,224.0000
1982-01-25 23:30:00 UTC,2444995.479167,29.7139,-93.4733,0049,-11.59,-12.43,17.0000,223.0000
1982-01-26 00:00:00 UTC,2444995.500000,29.7139,-93.4733,0049,-10.93,-13.02,17.0000,220.0000
1982-01-26 00:30:00 UTC,2444995.520833,29.7139,-93.4733,0049,-9.40,-12.94,16.0000,216.0000
1982-01-26 01:00:00 UTC,2444995.541667,29.7139,-93.4733,0049,-9.63,-12.78,16.0000,217.0000
1982-01-26 01:30:00 UTC,2444995.562500,29.7139,-93.4733,0049,-11.03,-8.62,14.0000,232.0000
1982-01-26 02:00:00 UTC,2444995.583333,29.7139,-93.4733,0049,-11.95,-1.05,12.0000,265.0000
1982-01-26 02:30:00 UTC,2444995.604167,29.7139,-93.4733,0049,-8.19,5.74,10.0000,305.0000
1982-01-26 03:00:00 UTC,2444995.625000,29.7139,-93.4733,0049,-2.92,9.56,10.0000,343.0000
1982-01-26 03:30:00 UTC,2444995.645833,29.7139,-93.4733,0049,-0.42,11.99,12.0000,358.0000
1982-01-26 04:00:00 UTC,2444995.666667,29.7139,-93.4733,0049,0.45,12.99,13.0000,2.0000
1982-01-26 04:30:00 UTC,2444995.687500,29.7139,-93.4733,0049,1.25,11.93,12.0000,6.0000
1982-01-26 05:00:00 UTC,2444995.708333,29.7139,-93.4733,0049,2.29,11.78,12.0000,11.0000
1982-01-26 05:30:00 UTC,2444995.729167,29.7139,-93.4733,0049,2.70,11.69,12.0000,13.0000
1982-01-26 06:00:00 UTC,2444995.750000,29.7139,-93.4733,0049,2.85,10.63,11.0000,15.0000
1982-01-26 06:30:00 UTC,2444995.770833,29.7139,-93.4733,0049,3.00,7.42,8.0000,22.0000
1982-01-26 07:00:00 UTC,2444995.791667,29.7139,-93.4733,0049,3.71,5.94,7.0000,32.0000
1982-01-26 07:30:00 UTC,2444995.812500,29.7139,-93.4733,0049,5.90,6.79,9.0000,41.0000
1982-01-26 08:00:00 UTC,2444995.833333,29.7139,-93.4733,0049,7.66,6.43,10.0000,50.0000
1982-01-26 08:30:00 UTC,2444995.854167,29.7139,-93.4733,0049,8.99,4.38,10.0000,64.0000
1982-01-26 09:00:00 UTC,2444995.875000,29.7139,-93.4733,0049,9.74,2.25,10.0000,77.0000
1982-01-26 09:30:00 UTC,2444995.895833,29.7139,-93.4733,0049,10.92,1.34,11.0000,83.0000
1982-01-26 10:00:00 UTC,2444995.916667,29.7139,-93.4733,0049,10.89,1.53,11.0000,82.0000
1982-01-26 10:30:00 UTC,2444995.937500,29.7139,-93.4733,0049,9.82,1.91,10.0000,79.0000
1982-01-26 11:00:00 UTC,2444995.958333,29.7139,-93.4733,0049,9.82,1.91,10.0000,79.0000
1982-01-26 11:30:00 UTC,2444995.979167,29.7139,-93.4733,0049,9.98,0.70,10.0000,86.0000
1982-01-26 12:00:00 UTC,2444996.000000,29.7139,-93.4733,0049,9.00,0.00,9.0000,90.0000
1982-01-26 12:30:00 UTC,2444996.020833,29.7139,-93.4733,0049,8.99,0.31,9.0000,88.0000
1982-01-26 13:00:00 UTC,2444996.041667,29.7139,-93.4733,0049,8.97,-0.78,9.0000,95.0000
1982-01-26 13:30:00 UTC,2444996.062500,29.7139,-93.4733,0049,8.80,-1.87,9.0000,102.0000
1982-01-26 14:00:00 UTC,2444996.083333,29.7139,-93.4733,0049,7.90,-1.25,8.0000,99.0000
1982-01-26 14:30:00 UTC,2444996.104167,29.7139,-93.4733,0049,6.00,-0.21,6.0000,92.0000
1982-01-26 15:00:00 UTC,2444996.125000,29.7139,-93.4733,0049,5.00,-0.09,5.0000,91.0000
1982-01-26 15:30:00 UTC,2444996.145833,29.7139,-93.4733,0049,3.00,0.16,3.0000,87.0000
1982-01-26 16:00:00 UTC,2444996.166667,29.7139,-93.4733,0049,1.60,1.20,2.0000,53.0000
1982-01-26 16:30:00 UTC,2444996.187500,29.7139,-93.4733,0049,1.85,2.36,3.0000,38.0000
1982-01-26 17:00:00 UTC,2444996.208333,29.7139,-93.4733,0049,1.81,2.40,3.0000,37.0000
1982-01-26 17:30:00 UTC,2444996.229167,29.7139,-93.4733,0049,2.12,2.12,3.0000,45.0000
1982-01-26 18:00:00 UTC,2444996.250000,29.7139,-93.4733,0049,2.80,1.08,3.0000,69.0000
1982-01-26 18:30:00 UTC,2444996.270833,29.7139,-93.4733,0049,3.97,-0.49,4.0000,97.0000
1982-01-26 19:00:00 UTC,2444996.291667,29.7139,-93.4733,0049,4.46,-2.27,5.0000,117.0000
1982-01-26 19:30:00 UTC,2444996.312500,29.7139,-93.4733,0049,4.01,-4.46,6.0000,138.0000
1982-01-26 20:00:00 UTC,2444996.333333,29.7139,-93.4733,0049,1.25,-5.87,6.0000,168.0000
1982-01-26 20:30:00 UTC,2444996.354167,29.7139,-93.4733,0049,-1.10,-6.91,7.0000,189.0000
1982-01-26 21:00:00 UTC,2444996.375000,29.7139,-93.4733,0049,-1.57,-6.82,7.0000,193.0000
1982-01-26 21:30:00 UTC,2444996.395833,29.7139,-93.4733,0049,-1.81,-6.76,7.0000,195.0000
1982-01-26 22:00:00 UTC,2444996.416667,29.7139,-93.4733,0049,-1.93,-6.73,7.0000,196.0000
1982-01-26 22:30:00 UTC,2444996.437500,29.7139,-93.4733,0049,-2.05,-5.64,6.0000,200.0000
1982-01-26 23:00:00 UTC,2444996.458333,29.7139,-93.4733,0049,-2.24,-3.32,4.0000,214.0000
1982-01-26 23:30:00 UTC,2444996.479167,29.7139,-93.4733,0049,-3.28,-2.29,4.0000,235.0000
1982-01-27 00:00:00 UTC,2444996.500000,29.7139,-93.4733,0049,-2.72,-1.27,3.0000,245.0000
1982-01-27 00:30:00 UTC,2444996.520833,29.7139,-93.4733,0049,-0.87,-0.50,1.0000,240.0000
1982-01-27 01:00:00 UTC,2444996.541667,29.7139,-93.4733,0049,-0.12,-0.99,1.0000,187.0000
1982-01-27 01:30:00 UTC,2444996.562500,29.7139,-93.4733,0049,0.03,-1.00,1.0000,178.0000
1982-01-27 02:00:00 UTC,2444996.583333,29.7139,-93.4733,0049,-0.09,-1.00,1.0000,185.0000
1982-01-27 02:30:00 UTC,2444996.604167,29.7139,-93.4733,0049,0.00,-2.00,2.0000,180.0000
1982-01-27 03:00:00 UTC,2444996.625000,29.7139,-93.4733,0049,0.42,-2.97,3.0000,172.0000
1982-01-27 03:30:00 UTC,2444996.645833,29.7139,-93.4733,0049,1.27,-2.72,3.0000,155.0000
1982-01-27 04:00:00 UTC,2444996.666667,29.7139,-93.4733,0049,2.40,-1.81,3.0000,127.0000
1982-01-27 04:30:00 UTC,2444996.687500,29.7139,-93.4733,0049,3.56,-1.82,4.0000,117.0000
1982-01-27 05:00:00 UTC,2444996.708333,29.7139,-93.4733,0049,2.84,-0.98,3.0000,109.0000
1982-01-27 05:30:00 UTC,2444996.729167,29.7139,-93.4733,0049,2.00,-0.14,2.0000,94.0000
1982-01-27 06:00:00 UTC,2444996.750000,29.7139,-93.4733,0049,1.70,1.06,2.0000,58.0000
1982-01-27 06:30:00 UTC,2444996.770833,29.7139,-93.4733,0049,0.83,3.91,4.0000,12.0000
1982-01-27 07:00:00 UTC,2444996.791667,29.7139,-93.4733,0049,0.73,5.96,6.0000,7.0000
1982-01-27 07:30:00 UTC,2444996.812500,29.7139,-93.4733,0049,0.76,3.93,4.0000,11.0000
1982-01-27 08:00:00 UTC,2444996.833333,29.7139,-93.4733,0049,-1.41,1.41,2.0000,315.0000
1982-01-27 08:30:00 UTC,2444996.854167,29.7139,-93.4733,0049,-7.90,1.25,8.0000,279.0000
1982-01-27 09:00:00 UTC,2444996.875000,29.7139,-93.4733,0049,-16.96,1.19,17.0000,274.0000
1982-01-27 09:30:00 UTC,2444996.895833,29.7139,-93.4733,0049,-19.99,0.70,20.0000,272.0000
1982-01-27 10:00:00 UTC,2444996.916667,29.7139,-93.4733,0049,-19.00,-0.00,19.0000,270.0000
1982-01-27 10:30:00 UTC,2444996.937500,29.7139,-93.4733,0049,-18.99,0.66,19.0000,272.0000
1982-01-27 11:00:00 UTC,2444996.958333,29.7139,-93.4733,0049,-18.90,1.99,19.0000,276.0000
1982-01-27 11:30:00 UTC,2444996.979167,29.7139,-93.4733,0049,-16.87,2.07,17.0000,277.0000
1982-01-27 12:00:00 UTC,2444997.000000,29.7139,-93.4733,0049,-14.96,1.05,15.0000,274.0000
1982-01-27 12:30:00 UTC,2444997.020833,29.7139,-93.4733,0049,-13.98,0.73,14.0000,273.0000
1982-01-27 13:00:00 UTC,2444997.041667,29.7139,-93.4733,0049,-13.00,-0.00,13.0000,270.0000
1982-01-27 13:30:00 UTC,2444997.062500,29.7139,-93.4733,0049,-11.85,-1.88,12.0000,261.0000
1982-01-27 14:00:00 UTC,2444997.083333,29.7139,-93.4733,0049,-8.46,-3.08,9.0000,250.0000
1982-01-27 14:30:00 UTC,2444997.104167,29.7139,-93.4733,0049,-5.56,-2.25,6.0000,248.0000
1982-01-27 15:00:00 UTC,2444997.125000,29.7139,-93.4733,0049,-5.71,-1.85,6.0000,252.0000
1982-01-27 15:30:00 UTC,2444997.145833,29.7139,-93.4733,0049,-6.79,-1.69,7.0000,256.0000
1982-01-27 16:00:00 UTC,2444997.166667,29.7139,-93.4733,0049,-9.96,-0.87,10.0000,265.0000
1982-01-27 16:30:00 UTC,2444997.187500,29.7139,-93.4733,0049,-11.91,1.46,12.0000,277.0000
1982-01-27 17:00:00 UTC,2444997.208333,29.7139,-93.4733,0049,-11.54,3.31,12.0000,286.0000
1982-01-27 17:30:00 UTC,2444997.229167,29.7139,-93.4733,0049,-13.07,5.02,14.0000,291.0000
1982-01-27 18:00:00 UTC,2444997.250000,29.7139,-93.4733,0049,-15.76,6.37,17.0000,292.0000
1982-01-27 18:30:00 UTC,2444997.270833,29.7139,-93.4733,0049,-16.80,6.45,18.0000,291.0000
1982-01-27 19:00:00 UTC,2444997.291667,29.7139,-93.4733,0049,-17.12,5.56,18.0000,288.0000
1982-01-27 19:30:00 UTC,2444997.312500,29.7139,-93.4733,0049,-17.21,5.26,18.0000,287.0000
1982-01-27 20:00:00 UTC,2444997.333333,29.7139,-93.4733,0049,-19.13,5.85,20.0000,287.0000
1982-01-27 20:30:00 UTC,2444997.354167,29.7139,-93.4733,0049,-21.04,6.43,22.0000,287.0000
1982-01-27 21:00:00 UTC,2444997.375000,29.7139,-93.4733,0049,-22.69,7.81,24.0000,289.0000
1982-01-27 21:30:00 UTC,2444997.395833,29.7139,-93.4733,0049,-21.33,8.62,23.0000,292.0000
1982-01-27 22:00:00 UTC,2444997.416667,29.7139,-93.4733,0049,-20.25,8.60,22.0000,293.0000
1982-01-27 22:30:00 UTC,2444997.437500,29.7139,-93.4733,0049,-20.67,7.52,22.0000,290.0000
1982-01-27 23:00:00 UTC,2444997.458333,29.7139,-93.4733,0049,-20.80,7.16,22.0000,289.0000
1982-01-27 23:30:00 UTC,2444997.479167,29.7139,-93.4733,0049,-18.91,6.51,20.0000,289.0000
1982-01-28 00:00:00 UTC,2444997.500000,29.7139,-93.4733,0049,-18.17,5.56,19.0000,287.0000
1982-01-28 00:30:00 UTC,2444997.520833,29.7139,-93.4733,0049,-15.71,3.05,16.0000,281.0000
1982-01-28 01:00:00 UTC,2444997.541667,29.7139,-93.4733,0049,-13.86,1.95,14.0000,278.0000
1982-01-28 01:30:00 UTC,2444997.562500,29.7139,-93.4733,0049,-11.74,2.49,12.0000,282.0000
1982-01-28 02:00:00 UTC,2444997.583333,29.7139,-93.4733,0049,-9.21,3.91,10.0000,293.0000
1982-01-28 02:30:00 UTC,2444997.604167,29.7139,-93.4733,0049,-7.63,4.77,9.0000,302.0000
1982-01-28 03:00:00 UTC,2444997.625000,29.7139,-93.4733,0049,-7.55,4.90,9.0000,303.0000
1982-01-28 03:30:00 UTC,2444997.645833,29.7139,-93.4733,0049,-6.63,4.47,8.0000,304.0000
1982-01-28 04:00:00 UTC,2444997.666667,29.7139,-93.4733,0049,-4.97,3.36,6.0000,304.0000
1982-01-28 04:30:00 UTC,2444997.687500,29.7139,-93.4733,0049,-3.35,2.18,4.0000,303.0000
1982-01-28 05:00:00 UTC,2444997.708333,29.7139,-93.4733,0049,-1.68,1.09,2.0000,303.0000
1982-01-28 05:30:00 UTC,2444997.729167,29.7139,-93.4733,0049,-0.87,0.48,1.0000,299.0000
1982-01-28 06:00:00 UTC,2444997.750000,29.7139,-93.4733,0049,-0.95,0.33,1.0000,289.0000
1982-01-28 06:30:00 UTC,2444997.770833,29.7139,-93.4733,0049,-0.97,0.26,1.0000,285.0000
1982-01-28 07:00:00 UTC,2444997.791667,29.7139,-93.4733,0049,-1.96,0.38,2.0000,281.0000
1982-01-28 07:30:00 UTC,2444997.812500,29.7139,-93.4733,0049,-1.99,0.21,2.0000,276.0000
1982-01-28 08:00:00 UTC,2444997.833333,29.7139,-93.4733,0049,-0.98,-0.17,1.0000,260.0000
1982-01-28 08:30:00 UTC,2444997.854167,29.7139,-93.4733,0049,-0.75,-0.66,1.0000,229.0000
1982-01-28 09:00:00 UTC,2444997.875000,29.7139,-93.4733,0049,-2.08,-2.16,3.0000,224.0000
1982-01-28 09:30:00 UTC,2444997.895833,29.7139,-93.4733,0049,-2.40,-1.81,3.0000,233.0000
1982-01-28 10:00:00 UTC,2444997.916667,29.7139,-93.4733,0049,-1.68,-1.09,2.0000,237.0000
1982-01-28 10:30:00 UTC,2444997.937500,29.7139,-93.4733,0049,-1.12,-1.66,2.0000,214.0000
1982-01-28 11:00:00 UTC,2444997.958333,29.7139,-93.4733,0049,-0.35,-1.97,2.0000,190.0000
1982-01-28 11:30:00 UTC,2444997.979167,29.7139,-93.4733,0049,0.17,-1.99,2.0000,175.0000
1982-01-28 12:00:00 UTC,2444998.000000,29.7139,-93.4733,0049,0.58,-1.91,2.0000,163.0000
1982-01-28 12:30:00 UTC,2444998.020833,29.7139,-93.4733,0049,0.98,-2.84,3.0000,161.0000
1982-01-28 13:00:00 UTC,2444998.041667,29.7139,-93.4733,0049,0.38,-1.96,2.0000,169.0000
1982-01-28 13:30:00 UTC,2444998.062500,29.7139,-93.4733,0049,-0.45,-1.95,2.0000,193.0000
1982-01-28 14:00:00 UTC,2444998.083333,29.7139,-93.4733,0049,-0.58,-1.91,2.0000,197.0000
1982-01-28 14:30:00 UTC,2444998.104167,29.7139,-93.4733,0049,-0.52,-1.93,2.0000,195.0000
1982-01-28 15:00:00 UTC,2444998.125000,29.7139,-93.4733,0049,-0.85,-1.81,2.0000,205.0000
1982-01-28 15:30:00 UTC,2444998.145833,29.7139,-93.4733,0049,-0.74,-0.67,1.0000,228.0000
1982-01-28 16:00:00 UTC,2444998.166667,29.7139,-93.4733,0049,-0.99,0.14,1.0000,278.0000
1982-01-28 16:30:00 UTC,2444998.187500,29.7139,-93.4733,0049,-2.05,2.19,3.0000,317.0000
1982-01-28 17:00:00 UTC,2444998.208333,29.7139,-93.4733,0049,-2.52,3.11,4.0000,321.0000
1982-01-28 17:30:00 UTC,2444998.229167,29.7139,-93.4733,0049,-3.19,2.41,4.0000,307.0000
1982-01-28 18:00:00 UTC,2444998.250000,29.7139,-93.4733,0049,-2.93,0.62,3.0000,282.0000
1982-01-28 18:30:00 UTC,2444998.270833,29.7139,-93.4733,0049,-2.97,-0.42,3.0000,262.0000
1982-01-28 19:00:00 UTC,2444998.291667,29.7139,-93.4733,0049,-4.92,-0.87,5.0000,260.0000
1982-01-28 19:30:00 UTC,2444998.312500,29.7139,-93.4733,0049,-6.89,-1.22,7.0000,260.0000
1982-01-28 20:00:00 UTC,2444998.333333,29.7139,-93.4733,0049,-7.76,-1.94,8.0000,256.0000
1982-01-28 20:30:00 UTC,2444998.354167,29.7139,-93.4733,0049,-7.65,-2.34,8.0000,253.0000
1982-01-28 21:00:00 UTC,2444998.375000,29.7139,-93.4733,0049,-7.83,-1.66,8.0000,258.0000
1982-01-28 21:30:00 UTC,2444998.395833,29.7139,-93.4733,0049,-8.95,-0.94,9.0000,264.0000
1982-01-28 22:00:00 UTC,2444998.416667,29.7139,-93.4733,0049,-8.93,-1.10,9.0000,263.0000
1982-01-28 22:30:00 UTC,2444998.437500,29.7139,-93.4733,0049,-7.76,-1.94,8.0000,256.0000
1982-01-28 23:00:00 UTC,2444998.458333,29.7139,-93.4733,0049,-6.66,-2.16,7.0000,252.0000
1982-01-28 23:30:00 UTC,2444998.479167,29.7139,-93.4733,0049,-5.60,-2.15,6.0000,249.0000
1982-01-29 00:00:00 UTC,2444998.500000,29.7139,-93.4733,0049,-4.05,-2.94,5.0000,234.0000
1982-01-29 00:30:00 UTC,2444998.520833,29.7139,-93.4733,0049,-2.87,-4.10,5.0000,215.0000
1982-01-29 01:00:00 UTC,2444998.541667,29.7139,-93.4733,0049,-2.96,-6.34,7.0000,205.0000
1982-01-29 01:30:00 UTC,2444998.562500,29.7139,-93.4733,0049,-3.25,-7.31,8.0000,204.0000
1982-01-29 02:00:00 UTC,2444998.583333,29.7139,-93.4733,0049,-3.25,-7.31,8.0000,204.0000
1982-01-29 02:30:00 UTC,2444998.604167,29.7139,-93.4733,0049,-2.87,-7.47,8.0000,201.0000
1982-01-29 03:00:00 UTC,2444998.625000,29.7139,-93.4733,0049,-3.03,-10.57,11.0000,196.0000
1982-01-29 03:30:00 UTC,2444998.645833,29.7139,-93.4733,0049,-3.62,-13.52,14.0000,195.0000
1982-01-29 04:00:00 UTC,2444998.666667,29.7139,-93.4733,0049,-3.63,-14.55,15.0000,194.0000
1982-01-29 04:30:00 UTC,2444998.687500,29.7139,-93.4733,0049,-2.70,-12.72,13.0000,192.0000
1982-01-29 05:00:00 UTC,2444998.708333,29.7139,-93.4733,0049,-1.15,-10.94,11.0000,186.0000
1982-01-29 05:30:00 UTC,2444998.729167,29.7139,-93.4733,0049,0.00,-9.00,9.0000,180.0000
1982-01-29 06:00:00 UTC,2444998.750000,29.7139,-93.4733,0049,-0.70,-9.98,10.0000,184.0000
1982-01-29 06:30:00 UTC,2444998.770833,29.7139,-93.4733,0049,-2.26,-12.80,13.0000,190.0000
1982-01-29 07:00:00 UTC,2444998.791667,29.7139,-93.4733,0049,-2.90,-11.64,12.0000,194.0000
1982-01-29 07:30:00 UTC,2444998.812500,29.7139,-93.4733,0049,-3.26,-9.46,10.0000,199.0000
1982-01-29 08:00:00 UTC,2444998.833333,29.7139,-93.4733,0049,-4.65,-9.97,11.0000,205.0000
1982-01-29 08:30:00 UTC,2444998.854167,29.7139,-93.4733,0049,-5.67,-9.43,11.0000,211.0000
1982-01-29 09:00:00 UTC,2444998.875000,29.7139,-93.4733,0049,-5.88,-8.09,10.0000,216.0000
1982-01-29 09:30:00 UTC,2444998.895833,29.7139,-93.4733,0049,-6.29,-7.77,10.0000,219.0000
1982-01-29 10:00:00 UTC,2444998.916667,29.7139,-93.4733,0049,-5.79,-6.89,9.0000,220.0000
1982-01-29 10:30:00 UTC,2444998.937500,29.7139,-93.4733,0049,-6.25,-6.47,9.0000,224.0000
1982-01-29 11:00:00 UTC,2444998.958333,29.7139,-93.4733,0049,-7.99,-6.02,10.0000,233.0000
1982-01-29 11:30:00 UTC,2444998.979167,29.7139,-93.4733,0049,-10.05,-4.47,11.0000,246.0000
1982-01-29 12:00:00 UTC,2444999.000000,29.7139,-93.4733,0049,-9.00,-0.16,9.0000,269.0000
1982-01-29 12:30:00 UTC,2444999.020833,29.7139,-93.4733,0049,-4.32,4.17,6.0000,314.0000
1982-01-29 13:00:00 UTC,2444999.041667,29.7139,-93.4733,0049,-1.35,5.85,6.0000,347.0000
1982-01-29 13:30:00 UTC,2444999.062500,29.7139,-93.4733,0049,0.26,4.99,5.0000,3.0000
1982-01-29 14:00:00 UTC,2444999.083333,29.7139,-93.4733,0049,0.94,1.77,2.0000,28.0000
1982-01-29 14:30:00 UTC,2444999.104167,29.7139,-93.4733,0049,1.95,0.45,2.0000,77.0000
1982-01-29 15:00:00 UTC,2444999.125000,29.7139,-93.4733,0049,2.99,0.26,3.0000,85.0000
1982-01-29 15:30:00 UTC,2444999.145833,29.7139,-93.4733,0049,3.99,0.28,4.0000,86.0000
1982-01-29 16:00:00 UTC,2444999.166667,29.7139,-93.4733,0049,2.95,0.52,3.0000,80.0000
1982-01-29 16:30:00 UTC,2444999.187500,29.7139,-93.4733,0049,2.62,1.45,3.0000,61.0000
1982-01-29 17:00:00 UTC,2444999.208333,29.7139,-93.4733,0049,1.59,2.54,3.0000,32.0000
1982-01-29 17:30:00 UTC,2444999.229167,29.7139,-93.4733,0049,0.88,2.87,3.0000,17.0000
1982-01-29 18:00:00 UTC,2444999.250000,29.7139,-93.4733,0049,-0.62,1.90,2.0000,342.0000
1982-01-29 18:30:00 UTC,2444999.270833,29.7139,-93.4733,0049,-4.67,1.79,5.0000,291.0000
1982-01-29 19:00:00 UTC,2444999.291667,29.7139,-93.4733,0049,-9.90,1.39,10.0000,278.0000
1982-01-29 19:30:00 UTC,2444999.312500,29.7139,-93.4733,0049,-14.00,0.24,14.0000,271.0000
1982-01-29 20:00:00 UTC,2444999.333333,29.7139,-93.4733,0049,-14.98,-0.79,15.0000,267.0000
1982-01-29 20:30:00 UTC,2444999.354167,29.7139,-93.4733,0049,-14.00,-0.00,14.0000,270.0000
1982-01-29 21:00:00 UTC,2444999.375000,29.7139,-93.4733,0049,-12.95,1.13,13.0000,275.0000
1982-01-29 21:30:00 UTC,2444999.395833,29.7139,-93.4733,0049,-12.90,1.58,13.0000,277.0000
1982-01-29 22:00:00 UTC,2444999.416667,29.7139,-93.4733,0049,-13.74,2.67,14.0000,281.0000
1982-01-29 22:30:00 UTC,2444999.437500,29.7139,-93.4733,0049,-13.07,5.02,14.0000,291.0000
1982-01-29 23:00:00 UTC,2444999.458333,29.7139,-93.4733,0049,-12.36,6.57,14.0000,298.0000
1982-01-29 23:30:00 UTC,2444999.479167,29.7139,-93.4733,0049,-15.15,7.72,17.0000,297.0000
1982-01-30 00:00:00 UTC,2444999.500000,29.7139,-93.4733,0049,-16.57,7.03,18.0000,293.0000
1982-01-30 00:30:00 UTC,2444999.520833,29.7139,-93.4733,0049,-12.87,1.81,13.0000,278.0000
1982-01-30 01:00:00 UTC,2444999.541667,29.7139,-93.4733,0049,-7.47,-2.87,8.0000,249.0000
1982-01-30 01:30:00 UTC,2444999.562500,29.7139,-93.4733,0049,-4.39,-4.09,6.0000,227.0000
1982-01-30 02:00:00 UTC,2444999.583333,29.7139,-93.4733,0049,-4.68,-5.20,7.0000,222.0000
1982-01-30 02:30:00 UTC,2444999.604167,29.7139,-93.4733,0049,-8.63,-8.34,12.0000,226.0000
1982-01-30 03:00:00 UTC,2444999.625000,29.7139,-93.4733,0049,-14.18,-11.08,18.0000,232.0000
1982-01-30 03:30:00 UTC,2444999.645833,29.7139,-93.4733,0049,-17.32,-10.00,20.0000,240.0000
1982-01-30 04:00:00 UTC,2444999.666667,29.7139,-93.4733,0049,-18.65,-3.63,19.0000,259.0000
1982-01-30 04:30:00 UTC,2444999.687500,29.7139,-93.4733,0049,-18.26,5.24,19.0000,286.0000
1982-01-30 05:00:00 UTC,2444999.708333,29.7139,-93.4733,0049,-16.38,11.47,20.0000,305.0000
1982-01-30 05:30:00 UTC,2444999.729167,29.7139,-93.4733,0049,-15.76,12.31,20.0000,308.0000
1982-01-30 06:00:00 UTC,2444999.750000,29.7139,-93.4733,0049,-17.41,11.74,21.0000,304.0000
1982-01-30 06:30:00 UTC,2444999.770833,29.7139,-93.4733,0049,-16.58,11.18,20.0000,304.0000
1982-01-30 07:00:00 UTC,2444999.791667,29.7139,-93.4733,0049,-12.08,10.50,16.0000,311.0000
1982-01-30 07:30:00 UTC,2444999.812500,29.7139,-93.4733,0049,-8.18,10.10,13.0000,321.0000
1982-01-30 08:00:00 UTC,2444999.833333,29.7139,-93.4733,0049,-6.88,9.83,12.0000,325.0000
1982-01-30 08:30:00 UTC,2444999.854167,29.7139,-93.4733,0049,-7.22,8.30,11.0000,319.0000
1982-01-30 09:00:00 UTC,2444999.875000,29.7139,-93.4733,0049,-6.02,6.69,9.0000,318.0000
1982-01-30 09:30:00 UTC,2444999.895833,29.7139,-93.4733,0049,-3.50,6.06,7.0000,330.0000
1982-01-30 10:00:00 UTC,2444999.916667,29.7139,-93.4733,0049,-2.54,5.44,6.0000,335.0000
1982-01-30 10:30:00 UTC,2444999.937500,29.7139,-93.4733,0049,-2.40,1.81,3.0000,307.0000
1982-01-30 11:00:00 UTC,2444999.958333,29.7139,-93.4733,0049,-2.16,-2.08,3.0000,226.0000